Location: Bu�n Treun
(12.1333°N, 108.3167°E)
Time: 12:29:31
(UTC+00:00)

PSLV R/B - Pass Details

Date: 13 July 2020
Orbit: 504 x 578 km, 97.8° (Epoch: 06 August)

Event Time Altitude Azimuth Distance (km) Brightness Sun altitude
Rises 22:00:26 0° 9° (N) 2,779 7.9 -7.3°
Reaches altitude 10° 22:02:36 10° 8° (N) 1,877 7.0 -6.9°
Maximum altitude 22:06:40 79° 283° (WNW) 583 3.9 -5.9°
Drops below altitude 10° 22:10:41 10° 195° (SSW) 1,849 6.1 -5.0°
Sets 22:12:47 0° 194° (SSW) 2,734 7.0 -4.6°
